Flag for Cyprus Weather past 2 weeks in Larnaca, Cyprus

Now
84 °F

Sunny.


Feels Like: 92 °F
Forecast: 72 / 93 °F
Wind: 21 mph from Southwest

Location: Larnaca Airport

Current Time: Jul 30, 2015 at 7:21:56 PM

Latest Report: Jul 30, 2015 at 7:00 PM


Visibility: 10 mi

Pressure: 29.62 "Hg

Humidity: 74%

Dew point: 75 °F

Location of LarnacaLocation

Historic Weather in Larnaca — Graph

°F

Larnaca temperature yesterday

Maximum temperature yesterday: 90 °F (at 1:00 PM)
Minimum temperature yesterday: 75 °F (at 4:30 AM)
Average temperature yesterday: 83 °F

Past Weeks' High & Low Weather Summary

 TemperatureHumidityPressure
High97 °F (Jul 22, 4:00 PM)100% (Jul 17, 12:00 AM)29.80 "Hg (Jul 17, 12:00 AM)
Low66 °F (Jul 24, 6:00 AM)21% (Jul 21, 8:00 PM)29.62 "Hg (Jul 20, 1:00 AM)
Average83 °F66%29.70 "Hg
* Reported Jul 15 6:00 PM — Jul 30 6:00 PM, Larnaca, Weather by CustomWeather, © 2015

Note: Actual official high and low records may vary slightly from our data, if they occured in-between our weather recording intervals... More about our weather records

Advertising

Larnaca weather history for previous 24 hours

 ConditionsComfort  
Time TempWeatherWind HumidityBarometerVisibility
6:00 PM
Thu, Jul 30
84 °FPassing clouds.22 mph70%29.62 "HgN/A
5:30 PM86 °FPassing clouds.23 mph70%29.62 "HgN/A
5:00 PM88 °FPassing clouds.22 mph62%29.62 "HgN/A
4:30 PM88 °FPassing clouds.20 mph62%29.65 "HgN/A
4:00 PM90 °FPassing clouds.20 mph55%29.65 "HgN/A
3:30 PM88 °FPassing clouds.21 mph59%29.65 "HgN/A
3:00 PM90 °FPassing clouds.20 mph59%29.65 "HgN/A
2:30 PM90 °FPassing clouds.20 mph59%29.68 "HgN/A
2:00 PM90 °FPassing clouds.20 mph55%29.68 "Hg5 mi
1:30 PM90 °FPassing clouds.20 mph59%29.68 "Hg5 mi
1:00 PM90 °FPassing clouds.20 mph55%29.68 "Hg5 mi
12:30 PM88 °FPassing clouds.15 mph62%29.68 "Hg5 mi
12:00 PM88 °FPassing clouds.15 mph66%29.68 "Hg5 mi
11:30 AM86 °FPassing clouds.15 mph66%29.68 "Hg5 mi
11:00 AM88 °FPassing clouds.15 mph66%29.68 "Hg5 mi
10:30 AM86 °FPassing clouds.13 mph66%29.68 "Hg4 mi
10:00 AM86 °FPassing clouds.14 mph70%29.68 "Hg4 mi
9:30 AM84 °FPassing clouds.14 mph70%29.68 "Hg4 mi
9:00 AM84 °FPassing clouds.9 mph74%29.71 "Hg4 mi
8:30 AM82 °FClear.8 mph79%29.71 "Hg5 mi
8:00 AM82 °FPassing clouds.5 mph74%29.71 "Hg5 mi
7:30 AM81 °FPassing clouds.2 mph79%29.68 "Hg5 mi
7:00 AM77 °FPassing clouds.3 mph83%29.68 "Hg5 mi
6:30 AM75 °FPassing clouds.3 mph89%29.68 "Hg4 mi
6:00 AM75 °FPassing clouds.3 mph89%29.68 "Hg4 mi
5:30 AM77 °FPassing clouds.3 mph83%29.68 "Hg4 mi
5:00 AM75 °FClear.3 mph89%29.68 "Hg4 mi
4:30 AM75 °FFog.5 mph83%29.68 "Hg3 mi
4:00 AM75 °FFog.2 mph83%29.68 "Hg3 mi
3:30 AM75 °FFog.1 mph94%29.68 "Hg3 mi
3:00 AM77 °FFog.2 mph94%29.68 "Hg3 mi
2:30 AM77 °FFog.5 mph94%29.65 "Hg3 mi
2:00 AM77 °FFog.8 mph94%29.65 "Hg3 mi
1:30 AM79 °FFog.8 mph94%29.65 "Hg3 mi
1:00 AM79 °FClear.8 mph94%29.68 "Hg4 mi
12:30 AM79 °FClear.8 mph94%29.68 "Hg4 mi
12:00 AM79 °FClear.9 mph94%29.68 "Hg4 mi
11:30 PM
Wed, Jul 29
81 °FClear.9 mph89%29.68 "Hg4 mi
11:00 PM81 °FClear.8 mph89%29.68 "Hg5 mi
10:30 PM81 °FClear.8 mph89%29.68 "Hg5 mi
10:00 PM81 °FClear.7 mph84%29.68 "Hg5 mi
9:30 PM81 °FClear.10 mph84%29.68 "Hg5 mi
9:00 PM81 °FClear.12 mph84%29.68 "Hg5 mi
8:30 PM81 °FPassing clouds.13 mph84%29.65 "Hg5 mi
8:00 PM82 °FPassing clouds.14 mph79%29.65 "Hg6 mi
7:30 PM82 °FPassing clouds.15 mph79%29.65 "HgN/A
7:00 PM84 °FPassing clouds.16 mph74%29.65 "HgN/A
Weather by CustomWeather, © 2015

See weather overviewHow to use our weather pages